Des Moines, IA

6:33 PM CST on January 20, 2017 (GMT -0600)
Des Moines International

Weather History for KDSM - June, 2014

Change the Weather History Date:

Saturday, June 14, 2014

  Actual Average Record
Temperature  
Mean Temperature 72 °F 72 °F  
Max Temperature 84 °F 81 °F 101 °F (1886)
Min Temperature 59 °F 62 °F 46 °F (1942)
Degree Days  
Heating Degree Days 0 0  
Month to date heating degree days 0 14  
Since 1 June heating degree days 0 14  
Since 1 July heating degree days 6787 6199  
Cooling Degree Days 7 7  
Month to date cooling degree days 79 76  
Year to date cooling degree days 210 152  
Since 1 June cooling degree days 79 76  
Growing Degree Days 22 (Base 50)    
Moisture  
Dew Point 54 °F    
Average Humidity 55    
Maximum Humidity 67    
Minimum Humidity 43    
Precipitation  
Precipitation T in 0.17 in 2.64 in (1925)
Month to date precipitation 2.33 2.30  
Year to date precipitation 13.48 15.48  
Snow  
Snow 0.00 in 0.00 in - ()
Month to date snowfall 0.0 0.0  
Since 1 June snowfall 0.0 0.0  
Since 1 July snowfall 48.3 35.3  
Snow Depth 0.00 in    
Sea Level Pressure  
Sea Level Pressure 29.83 in    
Wind  
Wind Speed 18 mph (SSE)    
Max Wind Speed 31 mph    
Max Gust Speed 40 mph    
Visibility 10 miles    
Events      
T = Trace of Precipitation, MM = Missing Value Source: NWS Daily Summary

Daily Weather History Graph

Daily Weather History Graph

Search for Another Location

Airport or City:

Trip Planner

Search our weather history database for the weather conditions in past years. The results will help you decide how hot, cold, wet, or windy it might be!

Date:

Astronomy

Jun. 14, 2014 Rise Set
Actual Time 5:40 AM CDT 8:49 PM CDT
Civil Twilight 5:06 AM CDT 9:23 PM CDT
Nautical Twilight 4:22 AM CDT 10:07 PM CDT
Astronomical Twilight 3:30 AM CDT 10:59 PM CDT
Moon 10:12 PM CDT (6/14) 7:26 AM CDT (6/14)
Length of Visible Light 16h 17m
Length of Day
15h 09m
Waning Gibbous, 97% of the Moon is Illuminated
Jun 14
Waning Gibbous
Jun 19
Last Quarter
Jun 27
New
Jul 5
First Quarter
Jul 12
Full

Hourly Weather History & Observations

Time (CDT) Temp. Heat Index Dew Point Humidity Pressure Visibility Wind Dir Wind Speed Gust Speed Precip Events Conditions
12:54 AM 62.1 °F - 48.9 °F 62% 29.96 in 10.0 mi South 9.2 mph - N/A   Clear
1:54 AM 60.1 °F - 48.9 °F 67% 29.96 in 10.0 mi SSE 9.2 mph - N/A   Mostly Cloudy
2:54 AM 60.1 °F - 48.0 °F 64% 29.94 in 10.0 mi SSE 9.2 mph - N/A   Mostly Cloudy
3:54 AM 59.0 °F - 48.0 °F 67% 29.95 in 10.0 mi SSE 9.2 mph - N/A   Scattered Clouds
4:54 AM 60.1 °F - 48.0 °F 64% 29.96 in 10.0 mi SE 6.9 mph - N/A   Mostly Cloudy
5:54 AM 59.0 °F - 48.0 °F 67% 29.95 in 10.0 mi SE 11.5 mph - N/A   Scattered Clouds
6:54 AM 60.1 °F - 48.9 °F 67% 29.92 in 10.0 mi SSE 15.0 mph - N/A   Partly Cloudy
7:54 AM 64.9 °F - 51.1 °F 61% 29.91 in 10.0 mi SSE 12.7 mph - N/A   Scattered Clouds
8:54 AM 70.0 °F - 52.0 °F 53% 29.91 in 10.0 mi South 17.3 mph 24.2 mph N/A   Mostly Cloudy
9:54 AM 73.0 °F - 53.1 °F 49% 29.89 in 10.0 mi SSE 20.7 mph 29.9 mph N/A   Partly Cloudy
10:54 AM 77.0 °F - 55.0 °F 47% 29.86 in 10.0 mi SSE 23.0 mph 32.2 mph N/A   Partly Cloudy
11:54 AM 79.0 °F - 55.9 °F 45% 29.82 in 10.0 mi South 25.3 mph 35.7 mph N/A   Partly Cloudy
12:54 PM 80.1 °F 80.4 °F 57.0 °F 45% 29.79 in 10.0 mi SSE 25.3 mph 34.5 mph N/A   Scattered Clouds
1:54 PM 82.0 °F 82.1 °F 59.0 °F 45% 29.77 in 10.0 mi SSE 25.3 mph 32.2 mph N/A   Mostly Cloudy
2:54 PM 82.9 °F 82.8 °F 59.0 °F 44% 29.75 in 10.0 mi SSE 26.5 mph 40.3 mph N/A   Scattered Clouds
3:54 PM 82.9 °F 82.8 °F 59.0 °F 44% 29.74 in 10.0 mi SSE 26.5 mph 38.0 mph N/A   Scattered Clouds
4:54 PM 82.0 °F 82.0 °F 57.9 °F 44% 29.73 in 10.0 mi South 21.9 mph 32.2 mph N/A   Mostly Cloudy
5:54 PM 80.1 °F 80.6 °F 57.9 °F 47% 29.72 in 10.0 mi SSE 16.1 mph 25.3 mph N/A   Mostly Cloudy
6:54 PM 79.0 °F - 57.0 °F 47% 29.72 in 10.0 mi SSE 17.3 mph - 0.00 in   Overcast
7:54 PM 78.1 °F - 55.0 °F 45% 29.72 in 10.0 mi SSE 17.3 mph 24.2 mph N/A   Overcast
8:54 PM 77.0 °F - 54.0 °F 45% 29.71 in 10.0 mi SSE 16.1 mph 25.3 mph N/A   Overcast
9:54 PM 75.9 °F - 55.0 °F 48% 29.73 in 10.0 mi SSE 17.3 mph - N/A   Overcast
10:54 PM 75.0 °F - 55.0 °F 50% 29.72 in 10.0 mi SSE 17.3 mph - N/A   Overcast
11:54 PM 73.9 °F - 55.0 °F 52% 29.68 in 10.0 mi SSE 18.4 mph 25.3 mph N/A   Overcast